TimeEDT,TemperatureF,Dew PointF,Humidity,Sea Level PressureIn,VisibilityMPH,Wind Direction,Wind SpeedMPH,Gust SpeedMPH,PrecipitationIn,Events,Conditions,WindDirDegrees,DateUTC
12:55 AM,44.4,25.7,48,30.29,10.0,North,3.5,-,N/A,,Clear,360,2013-04-26 04:55:00
1:55 AM,43.0,26.4,52,30.30,10.0,North,3.5,-,N/A,,Clear,10,2013-04-26 05:55:00
2:55 AM,41.5,26.4,55,30.31,10.0,North,4.6,-,N/A,,Clear,10,2013-04-26 06:55:00
3:55 AM,40.5,26.2,57,30.33,10.0,NNW,3.5,-,N/A,,Clear,340,2013-04-26 07:55:00
4:55 AM,39.9,24.3,54,30.35,10.0,NNE,4.6,-,N/A,,Partly Cloudy,30,2013-04-26 08:55:00
5:55 AM,42.4,23.7,48,30.36,10.0,NE,4.6,-,N/A,,Partly Cloudy,40,2013-04-26 09:55:00
6:55 AM,42.8,29.7,60,30.39,10.0,Variable,3.5,-,N/A,,Partly Cloudy,0,2013-04-26 10:55:00
7:55 AM,46.8,30.4,53,30.40,10.0,NW,5.8,-,N/A,,Partly Cloudy,310,2013-04-26 11:55:00
8:55 AM,53.2,26.2,35,30.40,10.0,ENE,9.2,-,N/A,,Partly Cloudy,60,2013-04-26 12:55:00
9:55 AM,54.1,26.1,34,30.42,10.0,ENE,12.7,-,N/A,,Partly Cloudy,60,2013-04-26 13:55:00
10:55 AM,54.5,26.1,33,30.43,10.0,ESE,12.7,-,N/A,,Partly Cloudy,110,2013-04-26 14:55:00
11:55 AM,54.5,29.8,39,30.44,10.0,ESE,10.4,-,N/A,,Partly Cloudy,110,2013-04-26 15:55:00
12:55 PM,53.6,32.4,44,30.42,10.0,East,10.4,-,N/A,,Partly Cloudy,80,2013-04-26 16:55:00
1:55 PM,54.0,34.5,48,30.42,10.0,East,11.5,-,N/A,,Partly Cloudy,80,2013-04-26 17:55:00
2:55 PM,53.1,34.5,49,30.41,10.0,ESE,12.7,-,N/A,,Partly Cloudy,110,2013-04-26 18:55:00
3:55 PM,51.1,34.9,54,30.40,10.0,ESE,11.5,-,N/A,,Partly Cloudy,110,2013-04-26 19:55:00
4:55 PM,50.2,36.3,59,30.40,10.0,ESE,8.1,-,N/A,,Scattered Clouds,110,2013-04-26 20:55:00
5:55 PM,49.5,37.0,62,30.40,10.0,ESE,5.8,-,N/A,,Mostly Cloudy,120,2013-04-26 21:55:00
6:55 PM,47.1,36.9,68,30.41,10.0,SSE,6.9,-,N/A,,Mostly Cloudy,150,2013-04-26 22:55:00
7:55 PM,45.0,37.0,74,30.43,10.0,SSE,6.9,-,N/A,,Overcast,150,2013-04-26 23:55:00
8:55 PM,44.2,37.8,78,30.43,10.0,South,3.5,-,N/A,,Mostly Cloudy,170,2013-04-27 00:55:00
9:55 PM,44.1,38.7,81,30.44,10.0,SE,3.5,-,N/A,,Mostly Cloudy,130,2013-04-27 01:55:00
10:55 PM,41.5,37.9,87,30.43,10.0,Calm,Calm,-,N/A,,Scattered Clouds,0,2013-04-27 02:55:00
11:55 PM,40.6,38.1,91,30.43,10.0,Calm,Calm,-,N/A,,Mostly Cloudy,0,2013-04-27 03:55:00